This is the latest recevied weather packets stored in our database for station/object JI8TEY-15. If no packets are shown the sender has not sent any weather packets the latest 10 day(s).
| Time | Temp. | Humidity | Pressure | Rain* | Wind** | Luminosity | Snow |
|---|---|---|---|---|---|---|---|
| 1777481886 | 5° C | 90% | 1014 hPa | 0 mm | - | - | - |
| 1777478286 | 4.44° C | 89% | 1014 hPa | 0 mm | - | - | - |
| 1777474687 | 4.44° C | 85% | 1014 hPa | 0 mm | - | - | - |
| 1777471086 | 5° C | 80% | 1015 hPa | 0 mm | - | - | - |
| 1777467487 | 6.11° C | 68% | 1014 hPa | 0 mm | - | - | - |
| 1777463887 | 7.78° C | 59% | 1014 hPa | 0 mm | - | - | - |
| 1777460287 | 8.33° C | 58% | 1014 hPa | 0 mm | - | - | - |
| 1777456687 | 8.33° C | 58% | 1012 hPa | 0 mm | - | - | - |
| 1777453087 | 9.44° C | 58% | 1011 hPa | 0 mm | - | - | - |
| 1777449487 | 11.11° C | 57% | 1011 hPa | 0 mm | - | - | - |
| 1777445887 | 13.89° C | 56% | 1010 hPa | 0 mm | - | - | - |
| 1777442286 | 13.33° C | 56% | 1010 hPa | 0 mm | - | - | - |
| 1777438687 | 13.89° C | 56% | 1010 hPa | 0 mm | - | - | - |
| 1777435086 | 11.67° C | 57% | 1011 hPa | 0 mm | - | - | - |
| 1777431486 | 13.33° C | 56% | 1010 hPa | 0 mm | - | - | - |
| 1777427887 | 12.78° C | 56% | 1011 hPa | 0 mm | - | - | - |
| 1777424287 | 11.67° C | 57% | 1011 hPa | 0 mm | - | - | - |
| 1777420687 | 10° C | 58% | 1011 hPa | 0 mm | - | - | - |
| 1777417087 | 8.33° C | 58% | 1011 hPa | 0 mm | - | - | - |
| 1777413488 | 7.78° C | 59% | 1012 hPa | 0 mm | - | - | - |
| 1777409886 | 5.56° C | 60% | 1012 hPa | 0 mm | - | - | - |
| 1777406288 | 5° C | 60% | 1011 hPa | 0 mm | - | - | - |
| 1777402686 | 5.56° C | 60% | 1010 hPa | 0 mm | - | - | - |
| 1777399087 | 6.11° C | 59% | 1010 hPa | 0 mm | - | - | - |
| 1777395486 | 5° C | 66% | 1010 hPa | 0 mm | - | - | - |
* Rain latest hour (hover to see other rain measurements)
** Current wind speed in m/s (hover to see current wind gust speed)